Time,TemperatureF,DewpointF,PressureIn,WindDirection,WindDirectionDegrees,WindSpeedMPH,WindSpeedGustMPH,Humidity,HourlyPrecipIn,Conditions,Clouds,dailyrainin,SolarRadiationWatts/m^2,SoftwareType,DateUTC
2013-07-17 00:01:00,79.0,71.6,30.21,NW,315,0.0,0.0,78,0.00,,,0.00,0,Wunderground v.1.15,2013-07-17 04:01:00,
2013-07-17 00:02:00,79.1,72.0,30.21,NW,316,0.0,-999.0,78,-99.99,,,0.00,,weatherlink.com 1.10,2013-07-17 04:02:00,
2013-07-17 00:04:00,79.2,71.7,30.21,NW,316,0.0,0.0,78,0.00,,,0.00,0,Wunderground v.1.15,2013-07-17 04:04:00,
2013-07-17 00:05:00,79.3,71.8,30.21,NW,315,0.0,0.0,78,0.00,,,0.00,0,Wunderground v.1.15,2013-07-17 04:05:00,
2013-07-17 00:11:00,79.7,71.8,30.21,NW,315,0.0,0.0,77,0.00,,,0.00,0,Wunderground v.1.15,2013-07-17 04:11:00,
2013-07-17 00:17:00,79.9,72.0,30.21,NW,315,0.0,-999.0,77,-99.99,,,0.00,,weatherlink.com 1.10,2013-07-17 04:17:00,
2013-07-17 00:23:00,79.9,72.0,30.22,NW,315,0.0,0.0,77,0.00,,,0.00,0,Wunderground v.1.15,2013-07-17 04:23:00,
2013-07-17 00:29:00,79.9,72.0,30.21,NW,315,0.0,0.0,77,0.00,,,0.00,0,Wunderground v.1.15,2013-07-17 04:29:00,
2013-07-17 00:35:00,79.8,71.9,30.21,NW,316,0.0,0.0,77,0.00,,,0.00,0,Wunderground v.1.15,2013-07-17 04:35:00,
2013-07-17 00:41:00,79.8,71.9,30.21,NW,315,0.0,0.0,77,0.00,,,0.00,0,Wunderground v.1.15,2013-07-17 04:41:00,
2013-07-17 00:47:00,79.8,72.0,30.21,NW,316,0.0,-999.0,77,-99.99,,,0.00,,weatherlink.com 1.10,2013-07-17 04:47:00,
2013-07-17 00:52:00,79.8,71.6,30.21,West,263,0.0,0.0,76,0.00,,,0.00,0,Wunderground v.1.15,2013-07-17 04:52:00,
2013-07-17 00:55:00,79.8,71.9,30.21,West,263,0.0,0.0,77,0.00,,,0.00,0,Wunderground v.1.15,2013-07-17 04:55:00,
2013-07-17 01:00:00,79.7,71.8,30.21,West,263,0.0,0.0,77,0.00,,,0.00,0,Wunderground v.1.15,2013-07-17 05:00:00,
2013-07-17 01:06:00,79.5,72.0,30.21,West,263,0.0,0.0,78,0.00,,,0.00,0,Wunderground v.1.15,2013-07-17 05:06:00,
2013-07-17 01:11:00,79.2,72.1,30.21,West,263,0.0,0.0,79,0.00,,,0.00,0,Wunderground v.1.15,2013-07-17 05:11:00,
2013-07-17 01:16:00,78.9,71.8,30.21,West,263,0.0,0.0,79,0.00,,,0.00,0,Wunderground v.1.15,2013-07-17 05:16:00,
2013-07-17 01:22:00,78.5,71.8,30.21,West,263,0.0,0.0,80,0.00,,,0.00,0,Wunderground v.1.15,2013-07-17 05:22:00,
2013-07-17 01:27:00,78.3,71.6,30.21,West,263,0.0,0.0,80,0.00,,,0.00,0,Wunderground v.1.15,2013-07-17 05:27:00,
2013-07-17 01:33:00,78.0,71.3,30.21,West,263,0.0,0.0,80,0.00,,,0.00,0,Wunderground v.1.15,2013-07-17 05:33:00,
2013-07-17 01:39:00,77.8,72.6,30.21,West,263,0.0,0.0,84,0.00,,,0.00,0,Wunderground v.1.15,2013-07-17 05:39:00,
2013-07-17 01:45:00,77.3,71.7,30.22,West,263,0.0,0.0,83,0.00,,,0.00,0,Wunderground v.1.15,2013-07-17 05:45:00,
2013-07-17 01:50:00,77.0,71.8,30.22,West,263,0.0,0.0,84,0.00,,,0.00,0,Wunderground v.1.15,2013-07-17 05:50:00,
2013-07-17 01:56:00,76.7,71.5,30.22,West,263,0.0,0.0,84,0.00,,,0.00,0,Wunderground v.1.15,2013-07-17 05:56:00,
2013-07-17 02:02:00,76.5,72.0,30.22,West,263,0.0,0.0,86,0.00,,,0.00,0,Wunderground v.1.15,2013-07-17 06:02:00,
2013-07-17 02:07:00,76.4,71.6,30.21,West,263,0.0,0.0,85,0.00,,,0.00,0,Wunderground v.1.15,2013-07-17 06:07:00,
2013-07-17 02:13:00,76.4,71.2,30.22,West,263,0.0,0.0,84,0.00,,,0.00,0,Wunderground v.1.15,2013-07-17 06:13:00,
2013-07-17 02:19:00,76.6,71.4,30.22,West,263,0.0,0.0,84,0.00,,,0.00,0,Wunderground v.1.15,2013-07-17 06:19:00,
2013-07-17 02:25:00,76.8,71.2,30.22,West,263,0.0,0.0,83,0.00,,,0.00,0,Wunderground v.1.15,2013-07-17 06:25:00,
2013-07-17 02:30:00,76.9,71.3,30.21,West,263,0.0,0.0,83,0.00,,,0.00,0,Wunderground v.1.15,2013-07-17 06:30:00,
2013-07-17 02:35:00,76.9,71.3,30.21,West,263,0.0,0.0,83,0.00,,,0.00,0,Wunderground v.1.15,2013-07-17 06:35:00,
2013-07-17 02:40:00,76.8,71.2,30.22,West,263,0.0,0.0,83,0.00,,,0.00,0,Wunderground v.1.15,2013-07-17 06:40:00,
2013-07-17 02:46:00,76.7,71.5,30.22,West,263,0.0,0.0,84,0.00,,,0.00,0,Wunderground v.1.15,2013-07-17 06:46:00,
2013-07-17 02:52:00,76.6,71.4,30.22,West,263,0.0,0.0,84,0.00,,,0.00,0,Wunderground v.1.15,2013-07-17 06:52:00,
2013-07-17 02:58:00,76.5,71.3,30.22,West,263,0.0,0.0,84,0.00,,,0.00,0,Wunderground v.1.15,2013-07-17 06:58:00,
2013-07-17 03:03:00,76.4,71.0,30.22,West,263,0.0,-999.0,84,-99.99,,,0.00,,weatherlink.com 1.10,2013-07-17 07:03:00,
2013-07-17 03:09:00,76.2,71.4,30.22,West,263,0.0,0.0,85,0.00,,,0.00,0,Wunderground v.1.15,2013-07-17 07:09:00,
2013-07-17 03:14:00,76.0,71.2,30.22,West,263,0.0,0.0,85,0.00,,,0.00,0,Wunderground v.1.15,2013-07-17 07:14:00,
2013-07-17 03:20:00,76.0,71.2,30.21,West,263,0.0,0.0,85,0.00,,,0.00,0,Wunderground v.1.15,2013-07-17 07:20:00,
2013-07-17 03:26:00,75.9,71.1,30.22,West,263,0.0,0.0,85,0.00,,,0.00,0,Wunderground v.1.15,2013-07-17 07:26:00,
2013-07-17 03:32:00,75.8,71.0,30.22,West,263,0.0,-999.0,86,-99.99,,,0.00,,weatherlink.com 1.10,2013-07-17 07:32:00,
2013-07-17 03:38:00,75.7,71.2,30.22,West,263,0.0,0.0,86,0.00,,,0.00,0,Wunderground v.1.15,2013-07-17 07:38:00,
2013-07-17 03:43:00,75.6,71.1,30.22,West,263,0.0,0.0,86,0.00,,,0.00,0,Wunderground v.1.15,2013-07-17 07:43:00,
2013-07-17 03:49:00,75.5,71.0,30.22,West,263,0.0,0.0,86,0.00,,,0.00,0,Wunderground v.1.15,2013-07-17 07:49:00,
2013-07-17 03:54:00,75.3,70.8,30.22,West,263,0.0,0.0,86,0.00,,,0.00,0,Wunderground v.1.15,2013-07-17 07:54:00,
2013-07-17 04:00:00,75.2,70.7,30.22,West,263,0.0,0.0,86,0.00,,,0.00,0,Wunderground v.1.15,2013-07-17 08:00:00,
2013-07-17 04:06:00,75.2,71.1,30.22,West,263,0.0,0.0,87,0.00,,,0.00,0,Wunderground v.1.15,2013-07-17 08:06:00,
2013-07-17 04:11:00,75.2,70.7,30.22,West,263,0.0,0.0,86,0.00,,,0.00,0,Wunderground v.1.15,2013-07-17 08:11:00,
2013-07-17 04:17:00,75.1,71.0,30.22,West,263,0.0,-999.0,86,-99.99,,,0.00,,weatherlink.com 1.10,2013-07-17 08:17:00,
2013-07-17 04:22:00,75.0,70.9,30.22,West,263,0.0,0.0,87,0.00,,,0.00,0,Wunderground v.1.15,2013-07-17 08:22:00,
2013-07-17 04:28:00,74.8,70.7,30.23,West,263,0.0,0.0,87,0.00,,,0.00,0,Wunderground v.1.15,2013-07-17 08:28:00,
2013-07-17 04:33:00,74.8,70.7,30.22,West,263,0.0,0.0,87,0.00,,,0.00,0,Wunderground v.1.15,2013-07-17 08:33:00,
2013-07-17 04:39:00,74.8,70.7,30.22,West,263,0.0,0.0,87,0.00,,,0.00,0,Wunderground v.1.15,2013-07-17 08:39:00,
2013-07-17 04:45:00,74.8,70.3,30.22,West,263,0.0,0.0,86,0.00,,,0.00,0,Wunderground v.1.15,2013-07-17 08:45:00,
2013-07-17 04:51:00,74.8,70.3,30.22,West,263,0.0,0.0,86,0.00,,,0.00,0,Wunderground v.1.15,2013-07-17 08:51:00,
2013-07-17 04:57:00,74.9,70.4,30.22,West,263,0.0,0.0,86,0.00,,,0.00,0,Wunderground v.1.15,2013-07-17 08:57:00,
2013-07-17 05:02:00,74.9,71.0,30.22,West,263,0.0,-999.0,86,-99.99,,,0.00,,weatherlink.com 1.10,2013-07-17 09:02:00,
2013-07-17 05:07:00,75.0,70.2,30.22,West,263,0.0,0.0,85,0.00,,,0.00,0,Wunderground v.1.15,2013-07-17 09:07:00,
2013-07-17 05:13:00,75.1,70.3,30.22,West,263,0.0,0.0,85,0.00,,,0.00,0,Wunderground v.1.15,2013-07-17 09:13:00,
2013-07-17 05:19:00,75.1,70.3,30.23,West,263,0.0,0.0,85,0.00,,,0.00,0,Wunderground v.1.15,2013-07-17 09:19:00,
2013-07-17 05:25:00,75.1,70.3,30.23,West,263,0.0,0.0,85,0.00,,,0.00,0,Wunderground v.1.15,2013-07-17 09:25:00,
2013-07-17 05:31:00,75.0,70.2,30.22,West,263,0.0,0.0,85,0.00,,,0.00,0,Wunderground v.1.15,2013-07-17 09:31:00,
2013-07-17 05:37:00,74.9,70.1,30.23,West,263,0.0,0.0,85,0.00,,,0.00,0,Wunderground v.1.15,2013-07-17 09:37:00,
2013-07-17 05:42:00,74.9,70.1,30.23,West,263,0.0,0.0,85,0.00,,,0.00,0,Wunderground v.1.15,2013-07-17 09:42:00,
2013-07-17 05:48:00,75.0,70.0,30.23,West,263,0.0,-999.0,85,-99.99,,,0.00,,weatherlink.com 1.10,2013-07-17 09:48:00,
2013-07-17 05:54:00,75.0,70.2,30.23,West,263,0.0,0.0,85,0.00,,,0.00,0,Wunderground v.1.15,2013-07-17 09:54:00,
2013-07-17 06:00:00,74.9,70.1,30.23,West,263,0.0,0.0,85,0.00,,,0.00,0,Wunderground v.1.15,2013-07-17 10:00:00,
2013-07-17 06:06:00,75.0,69.8,30.24,West,263,0.0,0.0,84,0.00,,,0.00,0,Wunderground v.1.15,2013-07-17 10:06:00,
2013-07-17 06:12:00,74.9,70.1,30.24,West,263,0.0,0.0,85,0.00,,,0.00,0,Wunderground v.1.15,2013-07-17 10:12:00,
2013-07-17 06:18:00,74.9,70.0,30.24,West,263,0.0,-999.0,85,-99.99,,,0.00,,weatherlink.com 1.10,2013-07-17 10:18:00,
2013-07-17 06:23:00,74.9,70.1,30.24,West,263,0.0,0.0,85,0.00,,,0.00,5,Wunderground v.1.15,2013-07-17 10:23:00,
2013-07-17 06:29:00,74.8,70.0,30.24,West,263,0.0,0.0,85,0.00,,,0.00,9,Wunderground v.1.15,2013-07-17 10:29:00,
2013-07-17 06:34:00,74.7,69.9,30.24,West,263,0.0,0.0,85,0.00,,,0.00,12,Wunderground v.1.15,2013-07-17 10:34:00,
2013-07-17 06:40:00,74.8,70.0,30.24,West,263,0.0,0.0,85,0.00,,,0.00,14,Wunderground v.1.15,2013-07-17 10:40:00,
2013-07-17 06:46:00,74.9,70.1,30.25,West,263,0.0,0.0,85,0.00,,,0.00,19,Wunderground v.1.15,2013-07-17 10:46:00,
2013-07-17 06:52:00,75.0,70.2,30.25,West,263,0.0,0.0,85,0.00,,,0.00,26,Wunderground v.1.15,2013-07-17 10:52:00,
2013-07-17 06:57:00,75.1,70.3,30.25,West,263,0.0,0.0,85,0.00,,,0.00,35,Wunderground v.1.15,2013-07-17 10:57:00,
2013-07-17 07:03:00,75.3,70.1,30.25,West,263,0.0,0.0,84,0.00,,,0.00,40,Wunderground v.1.15,2013-07-17 11:03:00,
2013-07-17 07:09:00,75.5,70.3,30.25,West,263,0.0,0.0,84,0.00,,,0.00,47,Wunderground v.1.15,2013-07-17 11:09:00,
2013-07-17 07:14:00,75.5,70.3,30.25,West,263,0.0,0.0,84,0.00,,,0.00,58,Wunderground v.1.15,2013-07-17 11:14:00,
2013-07-17 07:20:00,75.6,70.4,30.25,WNW,296,0.0,0.0,84,0.00,,,0.00,79,Wunderground v.1.15,2013-07-17 11:20:00,
2013-07-17 07:26:00,75.8,70.6,30.25,WSW,246,0.0,0.0,84,0.00,,,0.00,98,Wunderground v.1.15,2013-07-17 11:26:00,
2013-07-17 07:31:00,76.0,70.8,30.26,WSW,248,0.0,0.0,84,0.00,,,0.00,113,Wunderground v.1.15,2013-07-17 11:31:00,
2013-07-17 07:37:00,76.3,70.8,30.25,West,275,0.0,0.0,83,0.00,,,0.00,128,Wunderground v.1.15,2013-07-17 11:37:00,
2013-07-17 07:42:00,76.6,71.0,30.25,West,276,0.0,0.0,83,0.00,,,0.00,141,Wunderground v.1.15,2013-07-17 11:42:00,
2013-07-17 07:48:00,76.9,71.0,30.25,WNW,286,0.0,0.0,82,0.00,,,0.00,156,Wunderground v.1.15,2013-07-17 11:48:00,
2013-07-17 07:54:00,77.3,71.0,30.25,WNW,282,0.0,0.0,81,0.00,,,0.00,171,Wunderground v.1.15,2013-07-17 11:54:00,
2013-07-17 07:59:00,77.5,71.2,30.25,West,281,0.0,0.0,81,0.00,,,0.00,186,Wunderground v.1.15,2013-07-17 11:59:00,
2013-07-17 08:05:00,78.0,71.3,30.25,WNW,298,0.0,0.0,80,0.00,,,0.00,204,Wunderground v.1.15,2013-07-17 12:05:00,
2013-07-17 08:10:00,78.3,71.6,30.25,WNW,298,0.0,0.0,80,0.00,,,0.00,220,Wunderground v.1.15,2013-07-17 12:10:00,
2013-07-17 08:16:00,78.7,71.6,30.25,WNW,294,0.0,0.0,79,0.00,,,0.00,237,Wunderground v.1.15,2013-07-17 12:16:00,
2013-07-17 08:22:00,79.1,72.0,30.25,West,261,0.0,0.0,79,0.00,,,0.00,253,Wunderground v.1.15,2013-07-17 12:22:00,
2013-07-17 08:27:00,79.6,71.8,30.25,West,280,0.0,0.0,77,0.00,,,0.00,272,Wunderground v.1.15,2013-07-17 12:27:00,
2013-07-17 08:33:00,80.0,72.1,30.25,West,273,0.0,0.0,77,0.00,,,0.00,285,Wunderground v.1.15,2013-07-17 12:33:00,
2013-07-17 08:39:00,80.5,72.6,30.25,West,274,0.0,0.0,77,0.00,,,0.00,308,Wunderground v.1.15,2013-07-17 12:39:00,
2013-07-17 08:45:00,80.9,72.2,30.25,West,279,0.0,0.0,75,0.00,,,0.00,325,Wunderground v.1.15,2013-07-17 12:45:00,
2013-07-17 08:51:00,81.3,71.8,30.26,WNW,303,0.0,5.0,73,0.00,,,0.00,345,Wunderground v.1.15,2013-07-17 12:51:00,
2013-07-17 08:56:00,81.6,72.1,30.26,NW,308,1.0,5.0,73,0.00,,,0.00,360,Wunderground v.1.15,2013-07-17 12:56:00,
2013-07-17 09:02:00,82.0,72.5,30.26,WNW,293,1.0,2.0,73,0.00,,,0.00,378,Wunderground v.1.15,2013-07-17 13:02:00,
2013-07-17 09:07:00,82.2,72.3,30.26,NW,325,1.0,2.0,72,0.00,,,0.00,396,Wunderground v.1.15,2013-07-17 13:07:00,
2013-07-17 09:13:00,82.5,72.1,30.26,NNW,338,2.0,4.0,71,0.00,,,0.00,411,Wunderground v.1.15,2013-07-17 13:13:00,
2013-07-17 09:19:00,82.9,72.1,30.27,NW,321,2.0,4.0,70,0.00,,,0.00,431,Wunderground v.1.15,2013-07-17 13:19:00,
2013-07-17 09:25:00,83.2,72.4,30.27,NW,311,1.0,3.0,70,0.00,,,0.00,446,Wunderground v.1.15,2013-07-17 13:25:00,
2013-07-17 09:30:00,83.4,72.2,30.26,NNW,333,1.0,1.0,69,0.00,,,0.00,466,Wunderground v.1.15,2013-07-17 13:30:00,
2013-07-17 09:36:00,83.5,72.3,30.26,NNW,345,1.0,5.0,69,0.00,,,0.00,483,Wunderground v.1.15,2013-07-17 13:36:00,
2013-07-17 09:41:00,83.5,71.8,30.26,NW,307,2.0,2.0,68,0.00,,,0.00,496,Wunderground v.1.15,2013-07-17 13:41:00,
2013-07-17 09:47:00,83.7,72.4,30.26,NW,309,2.0,5.0,69,0.00,,,0.00,515,Wunderground v.1.15,2013-07-17 13:47:00,
2013-07-17 09:53:00,83.9,72.6,30.25,West,276,2.0,4.0,69,0.00,,,0.00,529,Wunderground v.1.15,2013-07-17 13:53:00,
2013-07-17 09:59:00,84.2,72.0,30.26,NW,321,3.0,7.0,67,0.00,,,0.00,548,Wunderground v.1.15,2013-07-17 13:59:00,
2013-07-17 10:04:00,84.3,72.6,30.25,NW,308,4.0,6.0,68,0.00,,,0.00,564,Wunderground v.1.15,2013-07-17 14:04:00,
2013-07-17 10:10:00,84.5,72.3,30.25,NNW,342,5.0,5.0,67,0.00,,,0.00,584,Wunderground v.1.15,2013-07-17 14:10:00,
2013-07-17 10:16:00,84.6,72.4,30.25,NW,314,5.0,6.0,67,0.00,,,0.00,598,Wunderground v.1.15,2013-07-17 14:16:00,
2013-07-17 10:22:00,84.8,72.6,30.25,North,349,4.0,6.0,67,0.00,,,0.00,617,Wunderground v.1.15,2013-07-17 14:22:00,
2013-07-17 10:27:00,85.1,72.9,30.25,WNW,301,4.0,6.0,67,0.00,,,0.00,628,Wunderground v.1.15,2013-07-17 14:27:00,
2013-07-17 10:33:00,85.2,72.1,30.25,NNW,329,4.0,6.0,65,0.00,,,0.00,643,Wunderground v.1.15,2013-07-17 14:33:00,
2013-07-17 10:39:00,85.0,72.8,30.25,WNW,292,5.0,6.0,67,0.00,,,0.00,659,Wunderground v.1.15,2013-07-17 14:39:00,
2013-07-17 10:44:00,85.2,72.6,30.24,WNW,296,5.0,6.0,66,0.00,,,0.00,671,Wunderground v.1.15,2013-07-17 14:44:00,
2013-07-17 10:50:00,85.2,73.0,30.24,NW,326,4.0,4.0,67,0.00,,,0.00,693,Wunderground v.1.15,2013-07-17 14:50:00,
2013-07-17 10:56:00,85.4,72.7,30.24,North,355,4.0,6.0,66,0.00,,,0.00,707,Wunderground v.1.15,2013-07-17 14:56:00,
2013-07-17 11:01:00,85.4,72.7,30.24,North,360,4.0,10.0,66,0.00,,,0.00,715,Wunderground v.1.15,2013-07-17 15:01:00,
2013-07-17 11:07:00,85.5,72.8,30.24,NW,314,5.0,10.0,66,0.00,,,0.00,733,Wunderground v.1.15,2013-07-17 15:07:00,
2013-07-17 11:13:00,85.8,72.7,30.24,NW,312,4.0,10.0,65,0.00,,,0.00,568,Wunderground v.1.15,2013-07-17 15:13:00,
2013-07-17 11:18:00,86.0,72.9,30.24,WNW,300,4.0,10.0,65,0.00,,,0.00,721,Wunderground v.1.15,2013-07-17 15:18:00,
2013-07-17 11:24:00,85.9,73.2,30.24,NW,325,5.0,10.0,66,0.00,,,0.00,670,Wunderground v.1.15,2013-07-17 15:24:00,
2013-07-17 11:30:00,86.1,73.0,30.24,NNW,329,4.0,4.0,65,0.00,,,0.00,299,Wunderground v.1.15,2013-07-17 15:30:00,
2013-07-17 11:36:00,86.4,72.3,30.24,WNW,284,4.0,10.0,63,0.00,,,0.00,911,Wunderground v.1.15,2013-07-17 15:36:00,
2013-07-17 11:42:00,86.6,73.0,30.24,NNW,330,5.0,10.0,64,0.00,,,0.00,900,Wunderground v.1.15,2013-07-17 15:42:00,
2013-07-17 11:47:00,86.3,72.7,30.24,North,355,4.0,10.0,64,0.00,,,0.00,925,Wunderground v.1.15,2013-07-17 15:47:00,
2013-07-17 11:53:00,85.7,73.0,30.24,North,9,3.0,10.0,66,0.00,,,0.00,923,Wunderground v.1.15,2013-07-17 15:53:00,
2013-07-17 11:58:00,85.9,72.8,30.24,WSW,249,2.0,10.0,65,0.00,,,0.00,972,Wunderground v.1.15,2013-07-17 15:58:00,
2013-07-17 12:03:00,86.5,72.4,30.24,NW,304,2.0,10.0,63,0.00,,,0.00,1056,Wunderground v.1.15,2013-07-17 16:03:00,
2013-07-17 12:09:00,86.8,72.2,30.24,NW,311,3.0,10.0,62,0.00,,,0.00,1053,Wunderground v.1.15,2013-07-17 16:09:00,
2013-07-17 12:15:00,86.7,71.6,30.24,NW,317,3.0,10.0,61,0.00,,,0.00,225,Wunderground v.1.15,2013-07-17 16:15:00,
2013-07-17 12:21:00,86.3,72.2,30.24,NW,308,2.0,10.0,63,0.00,,,0.00,290,Wunderground v.1.15,2013-07-17 16:21:00,
2013-07-17 12:27:00,86.6,73.4,30.24,North,360,2.0,10.0,65,0.00,,,0.00,972,Wunderground v.1.15,2013-07-17 16:27:00,
2013-07-17 12:32:00,87.1,72.5,30.23,WNW,303,2.0,10.0,62,0.00,,,0.00,981,Wunderground v.1.15,2013-07-17 16:32:00,
2013-07-17 12:38:00,87.1,72.5,30.23,North,5,2.0,10.0,62,0.00,,,0.00,640,Wunderground v.1.15,2013-07-17 16:38:00,
2013-07-17 12:44:00,87.1,72.0,30.23,NW,321,3.0,10.0,61,0.00,,,0.00,176,Wunderground v.1.15,2013-07-17 16:44:00,
2013-07-17 12:50:00,86.7,72.1,30.23,WNW,283,2.0,2.0,62,0.00,,,0.00,974,Wunderground v.1.15,2013-07-17 16:50:00,
2013-07-17 12:56:00,87.3,72.7,30.23,WNW,290,2.0,10.0,62,0.00,,,0.00,1018,Wunderground v.1.15,2013-07-17 16:56:00,
2013-07-17 13:01:00,87.4,72.8,30.23,NW,309,3.0,7.0,62,0.00,,,0.00,243,Wunderground v.1.15,2013-07-17 17:01:00,
2013-07-17 13:07:00,87.1,72.5,30.23,NW,306,4.0,11.0,62,0.00,,,0.00,997,Wunderground v.1.15,2013-07-17 17:07:00,
2013-07-17 13:13:00,87.5,72.4,30.23,North,349,3.0,11.0,61,0.00,,,0.00,965,Wunderground v.1.15,2013-07-17 17:13:00,
2013-07-17 13:18:00,87.6,72.0,30.22,WNW,298,0.0,-999.0,61,-99.99,,,0.00,,weatherlink.com 1.10,2013-07-17 17:18:00,
2013-07-17 13:23:00,87.9,71.8,30.22,West,271,2.0,11.0,59,0.00,,,0.00,951,Wunderground v.1.15,2013-07-17 17:23:00,
2013-07-17 13:29:00,87.8,70.7,30.22,West,273,3.0,11.0,57,0.00,,,0.00,951,Wunderground v.1.15,2013-07-17 17:29:00,
2013-07-17 13:35:00,88.2,71.6,30.22,SW,230,2.0,11.0,58,0.00,,,0.00,976,Wunderground v.1.15,2013-07-17 17:35:00,
2013-07-17 13:40:00,88.3,70.6,30.22,WNW,302,2.0,11.0,56,0.00,,,0.00,993,Wunderground v.1.15,2013-07-17 17:40:00,
2013-07-17 13:46:00,88.4,70.7,30.22,WNW,290,3.0,11.0,56,0.00,,,0.00,991,Wunderground v.1.15,2013-07-17 17:46:00,
2013-07-17 13:51:00,88.6,70.9,30.22,NW,319,3.0,4.0,56,0.00,,,0.00,1002,Wunderground v.1.15,2013-07-17 17:51:00,
2013-07-17 13:57:00,88.8,71.6,30.21,WNW,294,4.0,11.0,57,0.00,,,0.00,1002,Wunderground v.1.15,2013-07-17 17:57:00,
2013-07-17 14:03:00,89.1,70.3,30.21,WSW,241,4.0,10.0,54,0.00,,,0.00,1053,Wunderground v.1.15,2013-07-17 18:03:00,
2013-07-17 14:09:00,89.0,72.3,30.21,NNW,333,3.0,10.0,58,0.00,,,0.00,1028,Wunderground v.1.15,2013-07-17 18:09:00,
2013-07-17 14:15:00,88.1,70.9,30.21,NNW,345,3.0,10.0,57,0.00,,,0.00,204,Wunderground v.1.15,2013-07-17 18:15:00,
2013-07-17 14:21:00,88.3,71.6,30.20,WNW,288,2.0,10.0,58,0.00,,,0.00,967,Wunderground v.1.15,2013-07-17 18:21:00,
2013-07-17 14:26:00,88.8,71.1,30.20,NNW,330,1.0,10.0,56,0.00,,,0.00,954,Wunderground v.1.15,2013-07-17 18:26:00,
2013-07-17 14:32:00,89.3,71.0,30.20,NW,313,6.0,-999.0,55,-99.99,,,0.00,,weatherlink.com 1.10,2013-07-17 18:32:00,
2013-07-17 14:38:00,89.4,71.1,30.20,West,267,2.0,10.0,55,0.00,,,0.00,935,Wunderground v.1.15,2013-07-17 18:38:00,
2013-07-17 14:44:00,89.7,71.9,30.20,West,274,2.0,10.0,56,0.00,,,0.00,939,Wunderground v.1.15,2013-07-17 18:44:00,
2013-07-17 14:50:00,90.2,70.2,30.19,SW,217,2.0,10.0,52,0.00,,,0.00,935,Wunderground v.1.15,2013-07-17 18:50:00,
2013-07-17 14:56:00,89.9,69.3,30.19,SW,225,3.0,10.0,51,0.00,,,0.00,921,Wunderground v.1.15,2013-07-17 18:56:00,
2013-07-17 15:02:00,89.9,69.9,30.19,NW,314,2.0,9.0,52,0.00,,,0.00,923,Wunderground v.1.15,2013-07-17 19:02:00,
2013-07-17 15:07:00,90.1,70.7,30.18,SSW,207,1.0,9.0,53,0.00,,,0.00,946,Wunderground v.1.15,2013-07-17 19:07:00,
2013-07-17 15:13:00,90.7,69.5,30.18,WNW,302,2.0,9.0,50,0.00,,,0.00,940,Wunderground v.1.15,2013-07-17 19:13:00,
2013-07-17 15:18:00,90.7,70.7,30.18,WSW,256,1.0,9.0,52,0.00,,,0.00,490,Wunderground v.1.15,2013-07-17 19:18:00,
2013-07-17 15:24:00,90.1,70.7,30.18,NW,318,3.0,9.0,53,0.00,,,0.00,976,Wunderground v.1.15,2013-07-17 19:24:00,
2013-07-17 15:29:00,90.2,70.8,30.18,WNW,282,5.0,9.0,53,0.00,,,0.00,199,Wunderground v.1.15,2013-07-17 19:29:00,
2013-07-17 15:35:00,90.3,70.8,30.18,West,271,5.0,10.0,53,0.00,,,0.00,949,Wunderground v.1.15,2013-07-17 19:35:00,
2013-07-17 15:41:00,89.8,70.9,30.17,West,263,7.0,7.0,54,0.00,,,0.00,935,Wunderground v.1.15,2013-07-17 19:41:00,
2013-07-17 15:47:00,89.7,71.9,30.17,West,273,6.0,9.0,56,0.00,,,0.00,979,Wunderground v.1.15,2013-07-17 19:47:00,
2013-07-17 15:53:00,90.1,71.2,30.17,WNW,286,4.0,9.0,54,0.00,,,0.00,953,Wunderground v.1.15,2013-07-17 19:53:00,